Time,TemperatureF,DewpointF,PressureIn,WindDirection,WindDirectionDegrees,WindSpeedMPH,WindSpeedGustMPH,Humidity,HourlyPrecipIn,Conditions,Clouds,dailyrainin,SoftwareType,DateUTC
2013-07-04 00:02:00,72.0,64.0,30.19,SSE,158,0.0,0.0,76,0.00,,,0.02,,2013-07-04 04:02:00,
2013-07-04 00:22:00,71.0,64.0,30.19,SSE,158,0.0,0.0,78,0.00,,,0.02,,2013-07-04 04:22:00,
2013-07-04 00:33:00,71.0,64.0,30.19,SSE,158,0.0,0.0,78,0.00,,,0.02,,2013-07-04 04:33:00,
2013-07-04 00:43:00,71.0,64.0,30.18,SSE,158,0.0,0.0,79,0.00,,,0.02,,2013-07-04 04:43:00,
2013-07-04 00:52:00,71.0,64.0,30.17,SSE,158,0.0,0.0,79,0.00,,,0.02,,2013-07-04 04:52:00,
2013-07-04 01:02:00,71.0,64.0,30.18,SSE,158,0.0,0.0,79,0.00,,,0.02,,2013-07-04 05:02:00,
2013-07-04 01:22:00,70.0,63.0,30.17,SSE,158,0.0,0.0,79,0.00,,,0.02,,2013-07-04 05:22:00,
2013-07-04 01:33:00,70.0,63.0,30.17,SSE,158,0.0,0.0,79,0.00,,,0.02,,2013-07-04 05:33:00,
2013-07-04 01:43:00,70.0,63.0,30.17,SSE,158,0.0,0.0,79,0.00,,,0.02,,2013-07-04 05:43:00,
2013-07-04 01:52:00,70.0,64.0,30.17,SSE,158,0.0,0.0,80,0.00,,,0.02,,2013-07-04 05:52:00,
2013-07-04 02:01:00,70.0,64.0,30.16,SSE,158,0.0,0.0,80,0.00,,,0.02,,2013-07-04 06:01:00,
2013-07-04 02:11:00,70.0,64.0,30.16,SSE,158,0.0,0.0,80,0.00,,,0.00,,2013-07-04 06:11:00,
2013-07-04 02:34:00,70.0,64.0,30.16,SSE,158,0.0,0.0,80,0.00,,,0.00,,2013-07-04 06:34:00,
2013-07-04 02:43:00,69.0,63.0,30.16,SSE,158,0.0,0.0,80,0.00,,,0.00,,2013-07-04 06:43:00,
2013-07-04 03:02:00,69.0,63.0,30.16,SSE,158,0.0,0.0,80,0.00,,,0.00,,2013-07-04 07:02:00,
2013-07-04 03:12:00,69.0,63.0,30.17,SSE,158,0.0,0.0,80,0.00,,,0.00,,2013-07-04 07:12:00,
2013-07-04 03:34:00,69.0,63.0,30.16,SSE,158,0.0,0.0,80,0.00,,,0.00,,2013-07-04 07:34:00,
2013-07-04 03:52:00,68.0,62.0,30.16,SSE,158,0.0,0.0,81,0.00,,,0.00,,2013-07-04 07:52:00,
2013-07-04 04:02:00,68.0,62.0,30.16,SSE,158,0.0,0.0,81,0.00,,,0.00,,2013-07-04 08:02:00,
2013-07-04 04:11:00,68.0,62.0,30.16,SSE,158,0.0,0.0,81,0.00,,,0.00,,2013-07-04 08:11:00,
2013-07-04 04:33:00,67.0,61.0,30.17,SSE,158,0.0,0.0,82,0.00,,,0.00,,2013-07-04 08:33:00,
2013-07-04 04:42:00,67.0,61.0,30.18,SSE,158,0.0,0.0,82,0.00,,,0.00,,2013-07-04 08:42:00,
2013-07-04 04:53:00,67.0,61.0,30.18,SSE,158,0.0,0.0,82,0.00,,,0.00,,2013-07-04 08:53:00,
2013-07-04 05:02:00,67.0,61.0,30.19,SSE,158,0.0,0.0,82,0.00,,,0.00,,2013-07-04 09:02:00,
2013-07-04 05:11:00,67.0,61.0,30.19,SSE,158,0.0,0.0,82,0.00,,,0.00,,2013-07-04 09:11:00,
2013-07-04 05:32:00,67.0,62.0,30.19,SSE,158,0.0,0.0,83,0.00,,,0.00,,2013-07-04 09:32:00,
2013-07-04 05:42:00,67.0,62.0,30.19,SSE,158,0.0,0.0,83,0.00,,,0.00,,2013-07-04 09:42:00,
2013-07-04 05:52:00,67.0,62.0,30.19,SSE,158,0.0,0.0,83,0.00,,,0.00,,2013-07-04 09:52:00,
2013-07-04 06:11:00,67.0,62.0,30.19,SSE,158,0.0,0.0,84,0.00,,,0.00,,2013-07-04 10:11:00,
2013-07-04 06:43:00,67.0,62.0,30.20,SSE,158,0.0,0.0,84,0.00,,,0.00,,2013-07-04 10:43:00,
2013-07-04 06:53:00,67.0,62.0,30.20,SSE,158,0.0,0.0,84,0.00,,,0.00,,2013-07-04 10:53:00,
2013-07-04 07:02:00,67.0,62.0,30.20,SSE,158,0.0,0.0,84,0.00,,,0.00,,2013-07-04 11:02:00,
2013-07-04 07:11:00,67.0,62.0,30.20,SSE,158,0.0,0.0,84,0.00,,,0.00,,2013-07-04 11:11:00,
2013-07-04 07:22:00,67.0,62.0,30.20,SSE,158,0.0,0.0,84,0.00,,,0.00,,2013-07-04 11:22:00,
2013-07-04 07:34:00,67.0,62.0,30.20,SSE,158,0.0,0.0,84,0.00,,,0.00,,2013-07-04 11:34:00,
2013-07-04 07:43:00,67.0,62.0,30.20,SSE,158,0.0,0.0,84,0.00,,,0.00,,2013-07-04 11:43:00,
2013-07-04 07:53:00,67.0,62.0,30.20,SSE,158,0.0,0.0,84,0.00,,,0.00,,2013-07-04 11:53:00,
2013-07-04 08:12:00,68.0,63.0,30.22,SSE,158,0.0,0.0,84,0.00,,,0.00,,2013-07-04 12:12:00,
2013-07-04 08:22:00,68.0,63.0,30.22,SSE,158,0.0,0.0,84,0.00,,,0.00,,2013-07-04 12:22:00,
2013-07-04 08:33:00,69.0,64.0,30.22,SSE,158,0.0,0.0,84,0.00,,,0.00,,2013-07-04 12:33:00,
2013-07-04 08:43:00,69.0,64.0,30.22,SSE,158,0.0,0.0,84,0.00,,,0.00,,2013-07-04 12:43:00,
2013-07-04 08:52:00,69.0,64.0,30.22,SSE,158,0.0,0.0,84,0.00,,,0.00,,2013-07-04 12:52:00,
2013-07-04 09:33:00,70.0,65.0,30.24,SSW,202,0.0,0.0,83,0.00,,,0.00,,2013-07-04 13:33:00,
2013-07-04 09:43:00,70.0,65.0,30.24,SSW,202,0.0,0.0,83,0.00,,,0.00,,2013-07-04 13:43:00,
2013-07-04 09:53:00,71.0,65.0,30.24,SSW,202,0.0,0.0,82,0.00,,,0.00,,2013-07-04 13:53:00,
2013-07-04 10:02:00,72.0,66.0,30.24,SSW,202,0.0,0.0,81,0.00,,,0.00,,2013-07-04 14:02:00,
2013-07-04 10:22:00,73.0,66.0,30.23,SW,232,0.0,0.0,78,0.00,,,0.00,,2013-07-04 14:22:00,
2013-07-04 10:43:00,73.0,65.0,30.23,SSW,202,0.0,0.0,77,0.00,,,0.00,,2013-07-04 14:43:00,
2013-07-04 10:53:00,73.0,65.0,30.23,SSW,202,0.0,0.0,77,0.00,,,0.00,,2013-07-04 14:53:00,
2013-07-04 11:02:00,73.0,65.0,30.23,SSW,202,0.0,0.0,77,0.00,,,0.00,,2013-07-04 15:02:00,
2013-07-04 11:11:00,74.0,66.0,30.22,SSW,202,0.0,0.0,75,0.00,,,0.00,,2013-07-04 15:11:00,
2013-07-04 11:33:00,77.0,67.0,30.22,South,180,0.0,0.0,71,0.00,,,0.00,,2013-07-04 15:33:00,
2013-07-04 11:43:00,78.0,67.0,30.22,SSW,202,0.0,0.0,69,0.00,,,0.00,,2013-07-04 15:43:00,
2013-07-04 12:02:00,80.0,67.0,30.21,SSW,202,0.0,0.0,65,0.00,,,0.00,,2013-07-04 16:02:00,
2013-07-04 12:11:00,81.0,67.0,30.22,SSW,202,0.0,0.0,63,0.00,,,0.00,,2013-07-04 16:11:00,
2013-07-04 12:22:00,81.0,67.0,30.22,SSW,202,0.0,0.0,63,0.00,,,0.00,,2013-07-04 16:22:00,
2013-07-04 12:33:00,82.0,68.0,30.21,SSW,202,0.0,0.0,63,0.00,,,0.00,,2013-07-04 16:33:00,
2013-07-04 12:43:00,82.0,68.0,30.21,SSW,202,0.0,0.0,63,0.00,,,0.00,,2013-07-04 16:43:00,
2013-07-04 12:52:00,83.0,69.0,30.20,SSW,201,0.0,0.0,62,0.00,,,0.00,,2013-07-04 16:52:00,
2013-07-04 13:02:00,83.0,68.0,30.21,NW,304,0.0,0.0,61,0.00,,,0.00,,2013-07-04 17:02:00,
2013-07-04 13:12:00,84.0,69.0,30.20,North,0,0.0,0.0,60,0.00,,,0.00,,2013-07-04 17:12:00,
2013-07-04 13:22:00,84.0,68.0,30.20,SSW,204,0.0,0.0,59,0.00,,,0.00,,2013-07-04 17:22:00,
2013-07-04 13:34:00,85.0,69.0,30.20,SW,226,0.0,0.0,59,0.00,,,0.00,,2013-07-04 17:34:00,
2013-07-04 13:43:00,85.0,69.0,30.19,SSW,209,0.0,0.0,59,0.00,,,0.00,,2013-07-04 17:43:00,
2013-07-04 14:01:00,86.0,69.0,30.19,SW,225,0.0,0.0,58,0.00,,,0.00,,2013-07-04 18:01:00,
2013-07-04 14:11:00,86.0,69.0,30.19,SW,225,0.0,0.0,58,0.00,,,0.00,,2013-07-04 18:11:00,
2013-07-04 14:22:00,86.0,69.0,30.18,NNW,338,0.0,0.0,58,0.00,,,0.00,,2013-07-04 18:22:00,
2013-07-04 14:33:00,86.0,69.0,30.18,NW,315,0.0,0.0,58,0.00,,,0.00,,2013-07-04 18:33:00,
2013-07-04 14:43:00,86.0,70.0,30.17,NW,315,0.0,0.0,59,0.00,,,0.00,,2013-07-04 18:43:00,
2013-07-04 15:02:00,87.0,71.0,30.16,WSW,237,0.0,0.0,59,0.00,,,0.00,,2013-07-04 19:02:00,
2013-07-04 15:12:00,87.0,71.0,30.16,WSW,237,0.0,0.0,59,0.00,,,0.00,,2013-07-04 19:12:00,
2013-07-04 15:22:00,87.0,69.0,30.16,SW,225,0.0,0.0,56,0.00,,,0.00,,2013-07-04 19:22:00,
2013-07-04 15:33:00,87.0,69.0,30.16,SW,225,0.0,0.0,56,0.00,,,0.00,,2013-07-04 19:33:00,
2013-07-04 15:43:00,87.0,69.0,30.15,SSW,213,0.0,0.0,55,0.00,,,0.00,,2013-07-04 19:43:00,
2013-07-04 15:53:00,87.0,69.0,30.15,SSW,210,0.0,0.0,56,0.00,,,0.00,,2013-07-04 19:53:00,
2013-07-04 16:02:00,87.0,69.0,30.15,SSW,210,0.0,0.0,56,0.00,,,0.00,,2013-07-04 20:02:00,
2013-07-04 16:22:00,87.0,69.0,30.14,SSW,208,0.0,0.0,55,0.00,,,0.00,,2013-07-04 20:22:00,
2013-07-04 16:34:00,87.0,69.0,30.14,SSW,210,0.0,0.0,56,0.00,,,0.00,,2013-07-04 20:34:00,
2013-07-04 16:42:00,87.0,70.0,30.14,South,180,0.0,0.0,58,0.00,,,0.00,,2013-07-04 20:42:00,
2013-07-04 16:53:00,87.0,70.0,30.13,South,180,0.0,0.0,57,0.00,,,0.00,,2013-07-04 20:53:00,
2013-07-04 17:01:00,87.0,69.0,30.13,SSW,202,0.0,0.0,56,0.00,,,0.00,,2013-07-04 21:01:00,
2013-07-04 17:12:00,87.0,70.0,30.14,SW,225,0.0,0.0,57,0.00,,,0.00,,2013-07-04 21:12:00,
2013-07-04 17:22:00,87.0,70.0,30.14,SW,225,0.0,0.0,57,0.00,,,0.00,,2013-07-04 21:22:00,
2013-07-04 17:32:00,87.0,70.0,30.14,SW,225,0.0,0.0,57,0.00,,,0.00,,2013-07-04 21:32:00,
2013-07-04 17:43:00,82.0,69.0,30.15,WNW,292,0.0,0.0,64,0.39,,,0.39,,2013-07-04 21:43:00,
2013-07-04 18:02:00,80.0,69.0,30.14,SSW,202,0.0,0.0,69,0.39,,,0.39,,2013-07-04 22:02:00,
2013-07-04 18:12:00,80.0,70.0,30.15,SSW,202,0.0,0.0,71,0.39,,,0.39,,2013-07-04 22:12:00,
2013-07-04 18:22:00,80.0,70.0,30.15,SSW,202,0.0,0.0,72,0.37,,,0.39,,2013-07-04 22:22:00,
2013-07-04 18:33:00,79.0,70.0,30.15,SSW,202,0.0,0.0,73,0.18,,,0.39,,2013-07-04 22:33:00,
2013-07-04 18:43:00,79.0,70.0,30.15,SSW,202,0.0,0.0,73,0.00,,,0.39,,2013-07-04 22:43:00,
2013-07-04 18:52:00,79.0,70.0,30.15,SSW,202,0.0,0.0,73,0.00,,,0.39,,2013-07-04 22:52:00,
2013-07-04 19:01:00,79.0,70.0,30.15,SSW,202,0.0,0.0,74,0.00,,,0.39,,2013-07-04 23:01:00,
2013-07-04 19:12:00,79.0,70.0,30.15,SSW,202,0.0,0.0,74,0.00,,,0.39,,2013-07-04 23:12:00,
2013-07-04 19:33:00,78.0,69.0,30.15,SSW,202,0.0,0.0,75,0.00,,,0.39,,2013-07-04 23:33:00,
2013-07-04 19:43:00,78.0,69.0,30.15,SSW,202,0.0,0.0,75,0.00,,,0.39,,2013-07-04 23:43:00,
2013-07-04 19:52:00,78.0,70.0,30.15,SSW,202,0.0,0.0,76,0.00,,,0.39,,2013-07-04 23:52:00,
2013-07-04 20:01:00,77.0,69.0,30.15,SSW,202,0.0,0.0,76,0.00,,,0.39,,2013-07-05 00:01:00,
2013-07-04 20:12:00,77.0,69.0,30.16,SSW,202,0.0,0.0,77,0.00,,,0.39,,2013-07-05 00:12:00,
2013-07-04 20:32:00,76.0,68.0,30.16,SSW,202,0.0,0.0,77,0.00,,,0.39,,2013-07-05 00:32:00,
2013-07-04 20:43:00,75.0,67.0,30.17,SSW,202,0.0,0.0,77,0.00,,,0.39,,2013-07-05 00:43:00,
2013-07-04 20:52:00,75.0,67.0,30.17,SSW,202,0.0,0.0,77,0.00,,,0.39,,2013-07-05 00:52:00,
2013-07-04 21:01:00,75.0,67.0,30.17,SSW,202,0.0,0.0,77,0.00,,,0.39,,2013-07-05 01:01:00,
2013-07-04 21:11:00,75.0,67.0,30.17,SSW,202,0.0,0.0,77,0.00,,,0.39,,2013-07-05 01:11:00,
2013-07-04 21:32:00,74.0,66.0,30.16,SSW,202,0.0,0.0,77,0.00,,,0.39,,2013-07-05 01:32:00,
2013-07-04 21:42:00,74.0,66.0,30.16,SSW,202,0.0,0.0,77,0.00,,,0.39,,2013-07-05 01:42:00,
2013-07-04 21:52:00,74.0,66.0,30.16,SSW,202,0.0,0.0,77,0.00,,,0.39,,2013-07-05 01:52:00,
2013-07-04 22:02:00,72.0,65.0,30.17,SSW,202,0.0,0.0,79,0.00,,,0.39,,2013-07-05 02:02:00,
2013-07-04 22:11:00,72.0,65.0,30.17,SSW,202,0.0,0.0,80,0.00,,,0.39,,2013-07-05 02:11:00,
2013-07-04 22:22:00,72.0,65.0,30.17,SSW,202,0.0,0.0,80,0.00,,,0.39,,2013-07-05 02:22:00,
2013-07-04 22:32:00,72.0,65.0,30.17,SSW,202,0.0,0.0,80,0.00,,,0.39,,2013-07-05 02:32:00,
2013-07-04 22:42:00,72.0,65.0,30.17,SSW,202,0.0,0.0,80,0.00,,,0.39,,2013-07-05 02:42:00,
2013-07-04 22:52:00,72.0,65.0,30.17,SSW,202,0.0,0.0,80,0.00,,,0.39,,2013-07-05 02:52:00,
2013-07-04 23:02:00,72.0,65.0,30.17,SSW,202,0.0,0.0,80,0.00,,,0.39,,2013-07-05 03:02:00,
2013-07-04 23:11:00,72.0,65.0,30.17,SSW,202,0.0,0.0,80,0.00,,,0.39,,2013-07-05 03:11:00,
2013-07-04 23:22:00,70.0,64.0,30.18,SSW,202,0.0,0.0,82,0.00,,,0.39,,2013-07-05 03:22:00,
2013-07-04 23:33:00,70.0,64.0,30.18,SSW,202,0.0,0.0,82,0.00,,,0.39,,2013-07-05 03:33:00,
2013-07-04 23:42:00,70.0,64.0,30.18,SSW,202,0.0,0.0,81,0.00,,,0.39,,2013-07-05 03:42:00,
2013-07-04 23:52:00,70.0,64.0,30.18,SSW,202,0.0,0.0,81,0.00,,,0.39,,2013-07-05 03:52:00,